Location: Chevoux
(46.3801°N, 4.9476°E)
Time: 21:40:23
(UTC+00:00)

Cosmos 1602 Rocket - Pass Details

Date: 28 January 2021
Orbit: 604 x 632 km, 82.5° (Epoch: 04 March)

Event Time Altitude Azimuth Distance (km) Brightness Sun altitude
Rises 17:26:48 0° 178° (S) 2,859 7.2 -8.5°
Reaches altitude 10° 17:29:01 10° 175° (S) 1,963 6.3 -8.9°
Maximum altitude 17:33:18 62° 95° (E) 699 3.6 -9.6°
Drops below altitude 10° 17:37:40 10° 16° (NNE) 1,997 5.9 -10.3°
Sets 17:39:56 0° 13° (NNE) 2,913 6.7 -10.7°
